Cumberland, WI

10:55 AM CDT on May 20, 2018 (GMT -0500)
Cumberland Municipal

Weather History for KUBE - January, 2014

Change the Weather History Date:

Monday, January 6, 2014

  Actual Average (KRPD) Record (KRPD)
Temperature  
Mean Temperature -20 °F -  
Max Temperature -14 °F 21 °F 31 °F (2016)
Min Temperature -25 °F 6 °F -22 °F (2018)
Degree Days  
Heating Degree Days 84    
Moisture  
Dew Point -30 °F    
Average Humidity 61    
Maximum Humidity 69    
Minimum Humidity 53    
Precipitation  
Precipitation 0.00 in - - ()
Sea Level Pressure  
Sea Level Pressure 30.10 in    
Wind  
Wind Speed 12 mph (WNW)    
Max Wind Speed 18 mph    
Max Gust Speed 23 mph    
Visibility 8 miles    
Events      
Averages and records for this station are not official NWS values.
T = Trace of Precipitation, MM = Missing Value Source: NWS Daily Summary

Daily Weather History Graph

Daily Weather History Graph

Search for Another Location

Airport or City:

Astronomy

Jan. 06, 2014 Rise Set
Actual Time 7:47 AM CST 4:40 PM CST
Civil Twilight 7:13 AM CST 5:14 PM CST
Nautical Twilight 6:36 AM CST 5:51 PM CST
Astronomical Twilight 6:00 AM CST 6:27 PM CST
Moon 10:44 AM CST (1/6) 11:34 PM CST (1/6)
Length of Visible Light 10h 00m
Length of Day
8h 52m
Waxing Crescent, 35% of the Moon is Illuminated
Jan 6
Waxing Crescent
Jan 7
First Quarter
Jan 15
Full
Jan 23
Last Quarter
Jan 30
New

Hourly Weather History & Observations

Time (CST) Temp. Windchill Dew Point Humidity Pressure Visibility Wind Dir Wind Speed Gust Speed Precip Events Conditions
3:15 AM -25.6 °F -46.8 °F -34.6 °F 63% 30.15 in 10.0 mi WNW 9.2 mph - N/A   Overcast
3:35 AM -25.6 °F -45.4 °F -34.6 °F 63% 30.15 in 7.0 mi WNW 8.1 mph - N/A   Overcast
3:55 AM -25.6 °F -48.0 °F -34.6 °F 63% 30.15 in 7.0 mi WNW 10.4 mph - N/A   Overcast
4:15 AM -25.6 °F -45.4 °F -34.6 °F 63% 30.14 in 10.0 mi WNW 8.1 mph - N/A   Scattered Clouds
4:35 AM -25.6 °F -48.0 °F -34.6 °F 63% 30.14 in 10.0 mi West 10.4 mph - N/A   Mostly Cloudy
4:55 AM -25.6 °F -46.8 °F -34.6 °F 63% 30.14 in 10.0 mi West 9.2 mph - N/A   Mostly Cloudy
5:15 AM -23.8 °F -46.9 °F -32.8 °F 63% 30.13 in 10.0 mi WNW 11.5 mph - N/A   Mostly Cloudy
5:35 AM -23.8 °F -46.9 °F -32.8 °F 63% 30.13 in 10.0 mi WNW 11.5 mph 18.4 mph N/A   Overcast
5:55 AM -23.8 °F -48.9 °F -34.6 °F 57% 30.13 in 7.0 mi WNW 13.8 mph 19.6 mph N/A   Overcast
6:15 AM -25.6 °F -50.2 °F -34.6 °F 63% 30.13 in 10.0 mi WNW 12.7 mph - N/A   Scattered Clouds
6:35 AM -25.6 °F -50.2 °F -34.6 °F 63% 30.13 in 10.0 mi WNW 12.7 mph 18.4 mph N/A   Mostly Cloudy
6:55 AM -25.6 °F -50.2 °F -34.6 °F 63% 30.13 in 5.0 mi WNW 12.7 mph 18.4 mph N/A   Haze
7:15 AM -25.6 °F -50.2 °F -34.6 °F 63% 30.13 in 5.0 mi WNW 12.7 mph - N/A   Haze
7:35 AM -25.6 °F -49.2 °F -34.6 °F 63% 30.13 in 4.0 mi WNW 11.5 mph - N/A   Haze
7:55 AM -23.8 °F -46.9 °F -34.6 °F 57% 30.13 in 4.0 mi WNW 11.5 mph 18.4 mph N/A   Haze
8:15 AM -23.8 °F -44.5 °F -34.6 °F 57% 30.13 in 5.0 mi WNW 9.2 mph - N/A   Haze
8:35 AM -23.8 °F -44.5 °F -34.6 °F 57% 30.13 in 4.0 mi WNW 9.2 mph - N/A   Haze
8:55 AM -23.8 °F -46.9 °F -32.8 °F 63% 30.14 in 5.0 mi WNW 11.5 mph - N/A   Haze
9:15 AM -23.8 °F -45.8 °F -32.8 °F 63% 30.14 in 7.0 mi WNW 10.4 mph - N/A   Overcast
9:35 AM -23.8 °F -48.0 °F -32.8 °F 63% 30.14 in 5.0 mi WNW 12.7 mph 18.4 mph N/A   Haze
9:55 AM -22.0 °F -44.7 °F -32.8 °F 57% 30.14 in 5.0 mi WNW 11.5 mph - N/A   Haze
10:15 AM -22.0 °F -45.7 °F -32.8 °F 57% 30.14 in 5.0 mi WNW 12.7 mph 17.3 mph N/A   Haze
10:35 AM -22.0 °F -44.7 °F -31.0 °F 63% 30.13 in 5.0 mi WNW 11.5 mph 17.3 mph N/A   Haze
10:55 AM -20.2 °F -43.4 °F -31.0 °F 58% 30.13 in 7.0 mi WNW 12.7 mph 18.4 mph N/A   Overcast
11:15 AM -20.2 °F -43.4 °F -31.0 °F 58% 30.12 in 7.0 mi WNW 12.7 mph - N/A   Overcast
11:35 AM -18.4 °F -39.1 °F -31.0 °F 53% 30.11 in 7.0 mi WNW 10.4 mph - N/A   Overcast
11:55 AM -18.4 °F -42.9 °F -31.0 °F 53% 30.10 in 7.0 mi West 15.0 mph 19.6 mph N/A   Overcast
12:15 PM -18.4 °F -42.9 °F -29.2 °F 58% 30.09 in 7.0 mi WNW 15.0 mph 19.6 mph N/A   Overcast
12:35 PM -18.4 °F -44.5 °F -29.2 °F 58% 30.09 in 10.0 mi West 17.3 mph 21.9 mph N/A   Scattered Clouds
12:55 PM -16.6 °F -40.6 °F -27.4 °F 58% 30.08 in 10.0 mi WNW 15.0 mph - N/A   Mostly Cloudy
1:15 PM -16.6 °F -42.9 °F -27.4 °F 58% 30.07 in 7.0 mi West 18.4 mph - N/A   Mostly Cloudy
1:35 PM -14.8 °F -37.5 °F -27.4 °F 53% 30.07 in 7.0 mi WNW 13.8 mph 19.6 mph N/A   Scattered Clouds
1:55 PM -14.8 °F -38.3 °F -27.4 °F 53% 30.07 in 10.0 mi West 15.0 mph 18.4 mph N/A   Scattered Clouds
2:15 PM -14.8 °F -38.3 °F -27.4 °F 53% 30.07 in 10.0 mi WNW 15.0 mph 20.7 mph N/A   Mostly Cloudy
2:35 PM -14.8 °F -38.3 °F -27.4 °F 53% 30.07 in 10.0 mi West 15.0 mph 19.6 mph N/A   Scattered Clouds
2:55 PM -14.8 °F -38.3 °F -27.4 °F 53% 30.08 in 10.0 mi West 15.0 mph 19.6 mph N/A   Clear
3:15 PM -14.8 °F -35.6 °F -25.6 °F 58% 30.08 in 10.0 mi West 11.5 mph 20.7 mph N/A   Scattered Clouds
3:35 PM -16.6 °F -38.9 °F -27.4 °F 58% 30.08 in 10.0 mi West 12.7 mph - N/A   Scattered Clouds
3:55 PM -16.6 °F -40.6 °F -27.4 °F 58% 30.08 in 10.0 mi West 15.0 mph 18.4 mph N/A   Scattered Clouds
4:15 PM -16.6 °F -38.9 °F -27.4 °F 58% 30.08 in 7.0 mi West 12.7 mph 16.1 mph N/A   Clear
4:35 PM -16.6 °F -39.8 °F -27.4 °F 58% 30.08 in 10.0 mi West 13.8 mph 18.4 mph N/A   Clear
4:55 PM -18.4 °F -41.2 °F -27.4 °F 63% 30.08 in 10.0 mi West 12.7 mph - N/A   Mostly Cloudy
5:15 PM -18.4 °F -41.2 °F -27.4 °F 63% 30.08 in 5.0 mi West 12.7 mph - N/A   Haze
5:35 PM -18.4 °F -41.2 °F -27.4 °F 63% 30.08 in 10.0 mi West 12.7 mph - N/A   Scattered Clouds
5:55 PM -18.4 °F -41.2 °F -27.4 °F 63% 30.07 in 10.0 mi West 12.7 mph - N/A   Clear
6:15 PM -18.4 °F -42.9 °F -27.4 °F 63% 30.08 in 10.0 mi West 15.0 mph 19.6 mph N/A   Clear
6:35 PM -18.4 °F -43.7 °F -27.4 °F 63% 30.08 in 10.0 mi West 16.1 mph 19.6 mph N/A   Clear
6:55 PM -18.4 °F -42.9 °F -27.4 °F 63% 30.08 in 10.0 mi West 15.0 mph - N/A   Clear
7:15 PM -18.4 °F -44.5 °F -27.4 °F 63% 30.08 in 10.0 mi West 17.3 mph 23.0 mph N/A   Clear
7:35 PM -18.4 °F -42.1 °F -27.4 °F 63% 30.08 in 10.0 mi West 13.8 mph 19.6 mph N/A   Clear
7:55 PM -18.4 °F -41.2 °F -27.4 °F 63% 30.08 in 10.0 mi West 12.7 mph - N/A   Scattered Clouds
8:15 PM -18.4 °F -42.9 °F -27.4 °F 63% 30.08 in 10.0 mi West 15.0 mph - N/A   Mostly Cloudy
8:35 PM -18.4 °F -42.1 °F -27.4 °F 63% 30.07 in 10.0 mi West 13.8 mph 19.6 mph N/A   Scattered Clouds
8:55 PM -20.2 °F -40.1 °F -27.4 °F 69% 30.08 in 10.0 mi West 9.2 mph - N/A   Clear
9:15 PM -20.2 °F -42.4 °F -27.4 °F 69% 30.08 in 10.0 mi West 11.5 mph - N/A   Clear
9:35 PM -20.2 °F -42.4 °F -29.2 °F 63% 30.07 in 10.0 mi West 11.5 mph - N/A   Clear
9:55 PM -22.0 °F -45.7 °F -29.2 °F 69% 30.08 in 10.0 mi West 12.7 mph - N/A   Clear
10:15 PM -22.0 °F -44.7 °F -29.2 °F 69% 30.06 in 10.0 mi West 11.5 mph - N/A   Clear
10:35 PM -22.0 °F -43.6 °F -29.2 °F 69% 30.05 in 10.0 mi West 10.4 mph - N/A   Clear
10:55 PM -22.0 °F -42.3 °F -31.0 °F 63% 30.06 in 10.0 mi West 9.2 mph - N/A   Clear
11:15 PM -23.8 °F -43.2 °F -31.0 °F 69% 30.06 in 10.0 mi West 8.1 mph - N/A   Clear
11:35 PM -23.8 °F -44.5 °F -31.0 °F 69% 30.05 in 10.0 mi West 9.2 mph - N/A   Clear
11:55 PM -23.8 °F -43.2 °F -31.0 °F 69% 30.04 in 10.0 mi West 8.1 mph - N/A   Clear